Regional Weather Roundup
Issued by NWS

Home | Current Version | Previous Version | Graphics & Text | Print | Product List | Glossary On
Versions: 1 2 3 4 5 6 7 8 9 10 11 12 13 14 15 16 17 18 19 20 21 22 23 24 25 26 27 28 29 30 31 32 33 34 35 36 37 38 39 40 41 42 43 44 45 46 47 48 49 50
000
ASUS43 KFSD 271202
RWRSD

WEATHER ROUNDUP FOR SOUTH DAKOTA
NATIONAL WEATHER SERVICE SIOUX FALLS SD
700 AM CDT MON APR 27 2015

NOTE: "FAIR" INDICATES FEW OR NO CLOUDS BELOW 12,000 FEET WITH NO
SIGNIFICANT WEATHER AND/OR OBSTRUCTIONS TO VISIBILITY.


SDZ001>005-009-010-012>017-271300-
NORTHWEST AND NORTH CENTRAL SOUTH DAKOTA

CITY           SKY/WX    TMP DP  RH WIND       PRES   REMARKS
BUFFALO          N/A     38  37  97 NW17      30.17R
FAITH            N/A     45  43  93 N10       30.20R
MOBRIDGE       PTCLDY    37  32  82 CALM      30.17R
$$

SDZ012>016-024>037-041>051-057-063-072>074-271300-
SOUTHWEST AND SOUTH CENTRAL SOUTH DAKOTA

CITY           SKY/WX    TMP DP  RH WIND       PRES   REMARKS
RAPID CTY ARPT CLOUDY    42  39  89 N20       30.20R
PIERRE         CLEAR     34  30  85 CALM      30.19R
CUSTER         CLOUDY    38  36  92 CALM      30.20R FOG
ELLSWORTH AFB  CLOUDY    41  39  93 N18       30.21R
PHILIP         CLOUDY    47  39  74 CALM      30.19R
PINE RIDGE     CLOUDY    37  35  92 CALM      30.20R
WINNER         FAIR      43  29  57 SW6       30.20R
$$

SDZ004>011-016>023-039-040-271300-
NORTHEAST SOUTH DAKOTA

CITY           SKY/WX    TMP DP  RH WIND       PRES   REMARKS
ABERDEEN       PTCLDY    31  25  78 CALM      30.22R
WATERTOWN      CLEAR     35  21  56 CALM      30.21R
BROOKINGS      CLEAR     30  25  80 CALM      30.22R
SISSETON         N/A     31  25  78 SW3       30.20R
$$

SDZ017-020-022-023-036>040-048>070-271300-
SOUTHEAST SOUTH DAKOTA

CITY           SKY/WX    TMP DP  RH WIND       PRES   REMARKS
SIOUX FALLS    PTCLDY    34  27  75 NE5       30.20R WCI  30
HURON          CLEAR     31  25  78 CALM      30.20R
MITCHELL       CLEAR     37  32  82 NW3       30.21R
YANKTON        PTCLDY    39  27  60 E3        30.20R
$$

ABBREVIATIONS USED IN REMARKS
   TC - TEMPERATURE IN CELSIUS
  WCI - WIND CHILL INDEX
   HX - HEAT INDEX
  VSB - VISIBILITY



USA.gov is the U.S. government's official web portal to all federal, state and local government web resources and services.